Temp
-9 -9 -9 -9 -9 -9 -9 -9 -9 -8 -9 -9 -9 -9 -9 -10 -10 -10 -10 -10 -10 -11 -11 -11 -11 -11 -10 -11 -11 -11 -11 -11 -10 -10 -10 -11 -11 -11 -11 -11 -11 -11 -11 -11 -11 -11 -11 -11 -11
-9 -9 -9 -9 -9 -9 -9 -9 -9 -9 -9 -9 -9 -9 -9 -10 -10 -10 -11 -11 -11 -11 -11 -11 -11 -11 -11 -11 -12 -11 -11 -11 -11 -10 -10 -10 -11 -11 -11 -11 -12 -12 -12 -11 -11 -11 -11 -11 -11
-9 -9 -9 -9 -9 -9 -9 -9 -9 -9 -9 -9 -10 -10 -10 -10 -11 -11 -11 -11 -11 -11 -11 -12 -11 -11 -11 -11 -11 -11 -11 -11 -11 -11 -11 -11 -11 -11 -12 -12 -12 -12 -12 -12 -12 -11 -11 -11 -11
-9 -9 -9 -9 -9 -9 -9 -9 -9 -9 -10 -10 -10 -10 -10 -11 -11 -11 -11 -11 -11 -12 -12 -12 -11 -11 -11 -11 -11 -11 -11 -11 -11 -11 -11 -11 -12 -12 -12 -12 -12 -12 -12 -12 -12 -12 -12 -12 -12
-9 -9 -9 -9 -9 -9 -9 -9 -9 -10 -10 -11 -11 -11 -11 -11 -11 -11 -11 -12 -12 -11 -12 -11 -11 -11 -11 -11 -11 -11 -12 -12 -12 -12 -12 -12 -12 -12 -12 -12 -12 -12 -12 -12 -12 -12 -12 -12 -12
-9 -10 -9 -9 -9 -9 -9 -9 -10 -10 -10 -11 -11 -11 -11 -11 -11 -11 -12 -12 -12 -11 -11 -11 -11 -11 -12 -12 -12 -12 -12 -12 -12 -12 -12 -12 -12 -12 -12 -12 -12 -12 -12 -12 -12 -12 -12 -12 -12
-10 -10 -9 -9 -9 -9 -9 -10 -10 -10 -10 -10 -11 -11 -11 -11 -11 -12 -12 -12 -12 -12 -12 -12 -11 -11 -11 -12 -12 -12 -12 -12 -12 -12 -12 -12 -12 -12 -12 -12 -12 -12 -12 -12 -12 -12 -13 -12 -12
-10 -10 -9 -9 -9 -9 -10 -10 -10 -11 -11 -11 -11 -11 -11 -12 -12 -12 -12 -12 -12 -12 -12 -12 -12 -12 -12 -12 -12 -12 -12 -12 -12 -12 -12 -12 -12 -12 -12 -12 -12 -12 -12 -12 -12 -12 -12 -12 -13
-10 -10 -10 -10 -10 -10 -10 -10 -10 -11 -11 -11 -12 -12 -12 -12 -11 -11 -11 -11 -11 -11 -12 -12 -12 -12 -12 -12 -12 -12 -12 -12 -13 -13 -13 -13 -13 -12 -12 -12 -12 -12 -12 -12 -12 -12 -12 -12 -12
-10 -10 -10 -10 -10 -11 -11 -11 -11 -11 -11 -12 -12 -12 -12 -12 -12 -12 -12 -12 -11 -12 -12 -12 -12 -12 -13 -13 -13 -13 -13 -13 -13 -13 -13 -13 -13 -13 -12 -12 -12 -12 -12 -12 -12 -12 -12 -12 -12
-10 -10 -10 -10 -11 -11 -11 -11 -11 -12 -12 -12 -12 -12 -12 -12 -12 -12 -12 -12 -12 -12 -12 -12 -13 -13 -13 -13 -13 -13 -13 -13 -13 -13 -13 -13 -13 -13 -12 -12 -12 -12 -11 -11 -11 -11 -12 -12 -12
-11 -11 -11 -11 -11 -11 -11 -11 -11 -12 -12 -12 -12 -12 -12 -12 -12 -12 -12 -12 -12 -12 -13 -13 -13 -13 -13 -13 -13 -13 -13 -13 -13 -13 -13 -13 -13 -13 -12 -12 -12 -12 -12 -12 -12 -12 -12 -11 -11
-11 -11 -11 -11 -11 -11 -11 -11 -11 -11 -11 -11 -11 -11 -12 -12 -12 -12 -12 -12 -12 -12 -13 -13 -13 -13 -13 -13 -13 -14 -14 -14 -14 -14 -14 -13 -13 -13 -13 -13 -13 -12 -12 -12 -12 -12 -12 -12 -12
-11 -11 -11 -11 -11 -11 -11 -11 -11 -11 -11 -11 -11 -11 -11 -11 -12 -12 -12 -12 -13 -13 -13 -13 -13 -13 -13 -13 -14 -14 -14 -14 -14 -14 -14 -14 -14 -14 -13 -13 -13 -13 -13 -13 -13 -12 -12 -12 -12
-11 -11 -11 -11 -11 -11 -11 -11 -12 -12 -12 -11 -11 -11 -11 -11 -12 -12 -12 -13 -13 -13 -13 -14 -14 -14 -14 -14 -14 -14 -14 -14 -14 -14 -14 -14 -14 -13 -13 -13 -13 -13 -13 -13 -13 -13 -13 -12 -12
-12 -11 -12 -12 -11 -11 -11 -11 -12 -12 -12 -13 -12 -12 -12 -13 -13 -13 -13 -14 -14 -14 -14 -14 -14 -14 -14 -14 -14 -14 -14 -14 -14 -14 -14 -14 -14 -14 -14 -13 -13 -13 -13 -13 -13 -13 -13 -13 -12
-12 -11 -11 -12 -12 -12 -12 -12 -12 -12 -12 -13 -13 -13 -13 -14 -14 -14 -14 -15 -15 -15 -15 -15 -15 -15 -15 -15 -15 -15 -15 -15 -15 -15 -15 -15 -14 -14 -14 -14 -14 -14 -13 -13 -13 -13 -13 -13 -13
-12 -12 -12 -12 -12 -12 -12 -12 -12 -12 -12 -12 -13 -13 -13 -14 -14 -14 -14 -15 -15 -15 -15 -15 -15 -15 -15 -15 -15 -15 -15 -15 -16 -16 -16 -15 -15 -15 -15 -15 -15 -14 -14 -14 -13 -13 -13 -13 -13
-12 -12 -12 -12 -12 -12 -12 -12 -13 -13 -13 -13 -13 -13 -13 -14 -14 -15 -15 -15 -15 -16 -16 -16 -15 -16 -16 -16 -16 -16 -16 -17 -17 -17 -17 -17 -16 -16 -16 -15 -15 -15 -15 -14 -14 -14 -14 -14 -13
-13 -12 -12 -12 -12 -12 -12 -12 -13 -14 -13 -12 -13 -13 -14 -14 -15 -15 -16 -17 -17 -17 -17 -17 -17 -16 -16 -16 -16 -17 -18 -17 -17 -17 -17 -17 -17 -17 -17 -16 -16 -16 -16 -15 -15 -14 -14 -14 -14
-13 -13 -13 -13 -13 -13 -12 -12 -13 -13 -14 -14 -14 -14 -14 -15 -15 -16 -17 -17 -17 -17 -18 -18 -18 -17 -17 -18 -19 -19 -18 -18 -18 -18 -18 -18 -18 -18 -18 -18 -18 -18 -17 -17 -16 -16 -16 -16 -15
-13 -14 -13 -13 -13 -13 -14 -12 -13 -14 -15 -16 -16 -16 -16 -16 -17 -17 -17 -18 -18 -18 -19 -18 -17 -18 -19 -19 -19 -19 -19 -19 -19 -19 -19 -19 -19 -19 -18 -18 -18 -18 -18 -18 -18 -18 -17 -16 -17
-14 -14 -14 -15 -15 -14 -14 -15 -14 -15 -16 -17 -17 -17 -17 -17 -17 -17 -17 -17 -18 -19 -19 -19 -19 -19 -19 -19 -19 -19 -19 -19 -19 -19 -19 -19 -20 -20 -20 -20 -21 -20 -20 -20 -20 -20 -20 -19 -18
-16 -17 -17 -17 -17 -16 -17 -17 -14 -16 -17 -17 -17 -17 -17 -17 -17 -17 -18 -19 -19 -19 -19 -19 -19 -19 -19 -20 -20 -19 -19 -19 -19 -19 -20 -20 -21 -21 -21 -21 -21 -21 -21 -21 -21 -21 -20 -20 -19
-18 -18 -18 -18 -18 -17 -17 -17 -16 -16 -17 -18 -18 -18 -19 -19 -19 -19 -19 -20 -20 -19 -19 -19 -20 -20 -21 -21 -20 -20 -20 -20 -20 -20 -21 -21 -21 -21 -21 -21 -21 -21 -21 -22 -22 -22 -21 -21 -20
-19 -19 -19 -19 -19 -18 -18 -17 -17 -17 -18 -18 -19 -19 -20 -20 -20 -20 -20 -20 -20 -20 -20 -20 -20 -21 -21 -20 -20 -20 -20 -20 -21 -21 -21 -21 -21 -21 -21 -21 -21 -22 -23 -23 -22 -22 -22 -21 -21
-19 -20 -20 -20 -20 -19 -18 -18 -18 -18 -19 -19 -19 -20 -20 -20 -20 -21 -21 -21 -20 -20 -21 -21 -21 -21 -21 -20 -21 -21 -21 -21 -21 -21 -21 -21 -21 -21 -21 -22 -22 -23 -23 -23 -23 -22 -22 -22 -22
-19 -20 -20 -21 -21 -20 -19 -18 -18 -19 -19 -19 -20 -21 -20 -21 -21 -22 -21 -21 -21 -21 -21 -21 -21 -21 -22 -22 -22 -22 -22 -21 -21 -21 -21 -21 -21 -22 -22 -22 -23 -23 -23 -23 -23 -23 -23 -22 -22
-21 -21 -21 -21 -21 -21 -20 -19 -19 -20 -20 -20 -21 -22 -22 -22 -22 -22 -22 -22 -22 -22 -22 -22 -22 -22 -22 -22 -22 -22 -22 -21 -21 -21 -22 -22 -22 -22 -22 -23 -23 -24 -24 -23 -23 -23 -23 -23 -23
-21 -22 -22 -22 -21 -22 -21 -18 -20 -20 -21 -21 -22 -22 -22 -22 -22 -22 -22 -22 -23 -23 -23 -22 -22 -22 -22 -22 -22 -22 -22 -21 -21 -22 -22 -22 -21 -22 -22 -23 -24 -24 -25 -25 -24 -24 -24 -24 -24
Height
5842 5842 5842 5843 5846 5843 5839 5840 5841 5840 5841 5843 5844 5845 5845 5845 5847 5850 5847 5847 5846 5845 5846 5846 5846 5847 5848 5848 5847 5847 5846 5845 5844 5843 5842 5841 5840 5839 5839 5837 5836 5835 5833 5832 5831 5831 5830 5829 5829
5839 5838 5839 5839 5839 5838 5834 5837 5838 5836 5839 5839 5840 5840 5841 5842 5843 5844 5843 5842 5842 5841 5842 5842 5843 5844 5844 5846 5843 5842 5842 5841 5840 5839 5838 5838 5838 5835 5833 5832 5830 5829 5828 5827 5827 5827 5826 5826 5825
5833 5833 5833 5833 5833 5832 5831 5830 5831 5833 5832 5834 5836 5836 5837 5838 5839 5838 5838 5838 5837 5838 5839 5839 5839 5840 5839 5841 5839 5837 5836 5835 5836 5836 5835 5834 5834 5831 5829 5827 5826 5824 5823 5822 5821 5821 5821 5820 5820
5827 5827 5827 5826 5826 5827 5824 5822 5824 5829 5828 5829 5830 5831 5833 5833 5833 5833 5834 5833 5833 5834 5833 5834 5835 5834 5834 5834 5832 5831 5831 5832 5832 5831 5831 5830 5828 5827 5825 5823 5820 5819 5817 5817 5816 5815 5815 5816 5815
5821 5821 5820 5820 5820 5818 5818 5818 5819 5823 5826 5825 5827 5827 5828 5828 5828 5829 5828 5828 5828 5829 5827 5829 5830 5829 5829 5827 5827 5825 5826 5827 5826 5826 5826 5825 5824 5822 5820 5817 5815 5814 5813 5812 5811 5810 5810 5810 5810
5817 5817 5816 5815 5814 5814 5814 5814 5815 5817 5820 5822 5824 5824 5824 5822 5823 5823 5822 5823 5824 5824 5824 5822 5822 5822 5822 5822 5821 5822 5823 5821 5821 5821 5821 5820 5820 5818 5816 5813 5810 5809 5809 5808 5807 5806 5805 5804 5805
5814 5813 5812 5812 5812 5811 5811 5810 5811 5813 5815 5817 5820 5821 5821 5820 5819 5818 5819 5818 5817 5817 5817 5818 5817 5817 5817 5817 5818 5818 5817 5816 5816 5815 5814 5813 5813 5812 5810 5809 5806 5805 5803 5803 5802 5801 5801 5800 5800
5812 5810 5809 5810 5809 5809 5808 5807 5808 5809 5811 5812 5813 5816 5818 5816 5814 5813 5812 5812 5812 5812 5813 5813 5813 5814 5814 5814 5813 5812 5812 5812 5811 5810 5808 5807 5804 5804 5803 5802 5801 5800 5799 5798 5798 5796 5795 5795 5795
5808 5808 5807 5806 5807 5806 5804 5804 5806 5807 5807 5809 5809 5811 5812 5813 5811 5808 5807 5807 5807 5807 5808 5808 5808 5807 5807 5806 5806 5806 5805 5804 5803 5802 5800 5800 5798 5797 5797 5796 5794 5793 5793 5793 5793 5793 5791 5789 5790
5806 5804 5803 5803 5804 5801 5800 5801 5802 5803 5803 5804 5805 5806 5806 5806 5805 5804 5803 5802 5801 5800 5800 5800 5799 5799 5799 5798 5798 5797 5796 5795 5794 5793 5793 5792 5792 5790 5789 5789 5789 5788 5788 5786 5786 5787 5786 5785 5784
5803 5802 5800 5799 5798 5797 5796 5796 5796 5796 5798 5798 5800 5801 5800 5800 5799 5798 5798 5798 5797 5797 5796 5796 5795 5794 5793 5792 5792 5791 5789 5788 5786 5785 5785 5784 5784 5782 5783 5783 5781 5781 5781 5781 5780 5780 5779 5779 5779
5798 5798 5796 5795 5794 5792 5790 5791 5791 5792 5793 5794 5795 5795 5795 5794 5793 5792 5792 5791 5790 5789 5788 5787 5787 5786 5786 5785 5784 5782 5781 5780 5779 5778 5776 5776 5775 5774 5774 5773 5773 5773 5773 5773 5773 5773 5772 5772 5773
5795 5793 5791 5791 5788 5788 5786 5787 5787 5791 5789 5789 5789 5790 5790 5790 5789 5788 5786 5785 5783 5782 5780 5780 5779 5778 5777 5777 5775 5774 5773 5772 5770 5768 5766 5766 5765 5764 5764 5764 5763 5762 5763 5763 5763 5764 5764 5764 5764
5789 5789 5787 5785 5784 5785 5782 5784 5786 5785 5783 5783 5782 5782 5782 5782 5782 5781 5780 5778 5776 5774 5773 5773 5772 5770 5768 5766 5765 5763 5762 5761 5759 5758 5757 5757 5755 5755 5754 5754 5753 5753 5751 5752 5752 5752 5753 5754 5754
5782 5783 5781 5780 5779 5777 5778 5779 5779 5775 5776 5776 5777 5777 5776 5776 5776 5775 5773 5770 5769 5767 5766 5763 5762 5760 5759 5757 5755 5754 5752 5750 5749 5748 5745 5744 5743 5742 5741 5741 5740 5739 5740 5740 5740 5740 5741 5741 5742
5776 5774 5774 5773 5773 5771 5772 5771 5771 5770 5769 5766 5766 5768 5770 5770 5768 5766 5764 5763 5761 5760 5759 5756 5754 5752 5750 5748 5745 5743 5742 5740 5738 5735 5733 5732 5730 5729 5728 5727 5726 5726 5725 5725 5725 5725 5726 5727 5727
5767 5766 5767 5768 5766 5764 5764 5763 5762 5762 5761 5758 5757 5756 5757 5759 5758 5756 5755 5754 5753 5752 5749 5746 5744 5743 5740 5737 5734 5733 5731 5729 5726 5723 5721 5719 5716 5714 5712 5711 5711 5711 5710 5710 5710 5710 5710 5711 5711
5757 5758 5759 5760 5760 5757 5756 5755 5753 5752 5752 5751 5749 5747 5748 5747 5747 5746 5746 5744 5743 5742 5739 5736 5734 5733 5729 5726 5725 5723 5722 5718 5715 5712 5709 5707 5704 5701 5698 5696 5694 5693 5692 5692 5692 5692 5692 5692 5695
5750 5750 5749 5750 5748 5749 5749 5746 5744 5741 5740 5741 5740 5738 5736 5735 5735 5736 5736 5735 5733 5729 5725 5722 5721 5719 5716 5714 5713 5711 5708 5705 5703 5700 5697 5693 5690 5687 5684 5681 5678 5676 5674 5674 5673 5673 5673 5672 5674
5739 5739 5739 5739 5738 5736 5738 5738 5736 5732 5728 5728 5728 5727 5725 5723 5723 5723 5722 5721 5719 5717 5715 5711 5708 5705 5705 5704 5701 5698 5696 5694 5692 5689 5685 5681 5678 5674 5671 5667 5664 5661 5658 5656 5654 5653 5653 5652 5653
5728 5725 5726 5725 5724 5723 5724 5725 5723 5721 5719 5717 5714 5712 5711 5710 5710 5710 5709 5708 5707 5704 5700 5696 5692 5694 5696 5694 5690 5688 5686 5684 5681 5678 5675 5671 5666 5662 5659 5655 5651 5647 5643 5640 5638 5636 5635 5633 5633
5717 5714 5712 5710 5710 5711 5710 5709 5712 5710 5708 5707 5705 5703 5700 5699 5700 5699 5699 5698 5695 5691 5687 5684 5686 5686 5684 5682 5679 5677 5674 5672 5669 5666 5663 5659 5655 5651 5647 5643 5638 5634 5630 5626 5623 5619 5618 5617 5616
5702 5700 5698 5697 5696 5695 5697 5696 5701 5699 5698 5696 5695 5693 5691 5689 5688 5688 5687 5685 5682 5678 5677 5677 5676 5675 5674 5670 5668 5666 5663 5661 5658 5655 5653 5648 5644 5640 5636 5632 5628 5623 5619 5615 5611 5608 5604 5602 5601
5689 5689 5687 5685 5685 5683 5686 5685 5688 5688 5685 5684 5682 5681 5680 5678 5677 5675 5673 5672 5670 5669 5669 5667 5665 5665 5663 5660 5658 5656 5653 5651 5648 5644 5642 5638 5634 5631 5626 5623 5619 5614 5610 5604 5601 5597 5594 5591 5588
5679 5679 5677 5674 5674 5676 5674 5674 5678 5678 5675 5673 5672 5670 5669 5668 5666 5665 5664 5664 5663 5662 5661 5659 5656 5655 5653 5652 5650 5646 5645 5641 5638 5635 5632 5629 5625 5621 5616 5613 5607 5602 5598 5594 5591 5588 5585 5582 5578
5670 5670 5667 5664 5664 5665 5666 5663 5668 5667 5666 5663 5660 5658 5658 5657 5657 5657 5656 5655 5653 5653 5651 5648 5647 5646 5644 5643 5640 5639 5635 5632 5629 5626 5623 5618 5614 5610 5607 5603 5598 5592 5588 5586 5583 5580 5577 5573 5569
5661 5660 5659 5655 5655 5655 5659 5657 5660 5657 5656 5654 5653 5651 5649 5648 5648 5647 5647 5646 5645 5642 5641 5639 5639 5638 5637 5635 5633 5629 5627 5624 5621 5617 5613 5609 5605 5602 5598 5594 5589 5585 5582 5578 5576 5573 5570 5567 5563
5652 5651 5650 5647 5647 5645 5650 5647 5647 5646 5646 5645 5643 5641 5639 5638 5638 5638 5637 5637 5637 5636 5634 5632 5631 5630 5628 5626 5624 5621 5619 5616 5612 5608 5604 5600 5597 5593 5589 5585 5581 5578 5574 5572 5569 5566 5563 5560 5557
5644 5643 5641 5640 5639 5637 5638 5640 5638 5636 5634 5633 5633 5633 5631 5631 5631 5630 5629 5629 5628 5626 5624 5623 5622 5621 5619 5617 5615 5613 5610 5607 5604 5600 5596 5593 5589 5584 5580 5576 5573 5570 5567 5564 5562 5559 5556 5554 5551
5635 5635 5634 5630 5631 5628 5627 5629 5626 5626 5624 5623 5625 5624 5623 5622 5624 5624 5623 5622 5620 5617 5616 5615 5613 5612 5610 5608 5606 5604 5601 5599 5596 5592 5589 5585 5581 5576 5573 5568 5565 5562 5559 5557 5555 5553 5550 5547 5545
Wind_Speed
21 22 21 20 23 23 28 28 27 28 28 26 23 24 26 25 22 19 20 21 24 25 25 26 25 22 30 21 21 28 28 27 29 29 28 28 28 27 27 26 26 27 26 25 23 22 23 23 21
24 24 25 25 27 28 33 30 31 34 31 28 26 26 29 25 22 21 23 26 26 25 24 26 29 32 26 28 28 28 32 29 30 30 30 30 31 29 30 28 27 27 26 24 24 25 24 25 23
28 27 27 28 29 32 35 36 35 34 35 30 27 28 33 27 20 22 25 27 27 31 23 24 28 31 33 35 36 32 34 30 31 30 30 31 32 32 33 32 29 27 25 27 27 26 26 26 25
29 29 31 29 30 30 35 38 36 31 33 32 29 29 29 26 26 26 27 31 31 31 27 28 31 35 38 34 34 31 32 32 31 31 32 32 32 32 34 35 32 28 27 27 27 28 26 27 25
27 24 21 20 22 28 33 36 36 32 30 32 31 32 32 31 29 29 33 32 34 35 32 34 35 36 34 32 33 31 33 33 32 32 33 33 33 32 32 33 32 29 27 27 27 26 25 25 25
14 13 14 16 19 22 25 29 29 28 29 29 31 32 34 34 31 32 34 35 37 38 36 31 31 32 31 33 31 32 32 32 32 33 35 35 34 34 29 29 26 26 26 26 26 25 24 23 24
13 15 14 15 18 17 20 22 22 22 22 24 27 32 36 36 34 34 36 34 30 27 27 28 30 32 32 31 31 32 32 32 33 34 34 32 31 30 28 26 23 25 26 26 27 26 24 23 23
12 14 14 16 16 18 16 17 17 21 23 22 25 26 26 32 33 33 33 29 27 27 28 29 29 31 31 31 33 33 35 36 36 36 33 31 29 27 28 28 27 26 27 28 27 26 26 26 26
14 15 16 15 17 18 18 15 15 17 21 24 26 24 23 23 26 26 27 27 27 27 28 29 30 31 32 33 33 35 36 36 36 34 33 31 29 28 28 28 27 27 27 26 28 29 29 28 26
16 16 16 18 18 20 19 20 21 18 18 23 26 28 29 28 31 30 26 27 28 28 29 30 31 32 34 35 36 36 36 36 35 34 33 33 31 30 28 28 28 27 27 27 28 28 27 26 26
19 20 19 19 17 19 19 20 23 26 25 30 31 32 31 29 30 30 27 27 29 30 31 32 34 35 36 38 38 38 38 38 38 37 36 36 35 32 32 32 30 29 29 27 27 26 26 26 25
20 22 22 21 21 20 21 23 23 25 29 31 31 32 33 32 31 32 32 29 29 31 33 34 36 37 38 39 40 41 41 41 41 41 40 39 39 37 36 36 35 35 33 33 32 32 31 30 30
19 22 22 23 23 23 24 25 27 23 26 27 29 30 31 32 31 32 33 33 33 34 35 35 36 37 38 41 42 42 44 43 43 44 43 42 42 40 40 40 39 39 40 39 38 38 37 36 36
23 21 23 26 26 26 26 28 27 25 28 30 32 32 31 32 32 31 32 34 35 37 38 38 38 40 41 43 44 44 45 46 46 46 46 46 45 45 44 44 44 45 45 46 45 44 44 44 43
30 28 28 30 30 31 27 27 26 30 30 31 33 33 33 34 35 36 35 36 37 38 36 37 38 40 42 44 45 45 46 47 48 49 49 49 50 50 50 50 51 50 51 52 53 53 52 51 51
36 36 31 33 31 32 30 31 30 31 33 36 38 38 36 33 36 37 38 38 38 38 39 41 43 45 47 49 50 51 52 53 53 55 56 57 56 56 57 57 57 56 56 56 57 57 57 58 57
37 39 36 32 32 32 31 32 33 33 36 40 42 43 41 37 37 38 38 37 38 38 40 45 48 49 51 53 53 52 53 54 56 58 60 60 62 63 64 64 63 64 64 63 63 63 62 61 61
38 38 37 35 33 34 34 35 38 39 40 42 45 46 45 44 43 42 43 43 43 42 44 48 50 50 52 53 52 51 51 54 57 58 59 61 62 64 65 65 66 66 67 67 66 66 67 67 67
37 39 40 39 39 39 37 40 40 43 43 45 47 49 50 50 49 48 47 46 45 46 49 53 52 53 55 53 52 52 53 52 52 52 51 54 57 59 61 62 62 63 65 68 69 69 69 70 69
40 40 40 41 43 43 42 41 43 45 49 49 50 51 53 53 52 50 49 49 49 52 54 55 56 57 53 52 54 55 53 49 47 49 51 54 57 57 57 58 60 61 62 65 67 67 67 68 69
43 44 44 45 46 47 45 44 46 48 49 50 52 54 55 55 54 54 52 53 51 49 51 56 58 56 53 50 48 49 48 48 49 50 53 55 48 46 48 49 49 49 50 55 60 64 67 67 68
47 48 49 51 51 51 51 49 48 47 47 46 49 53 54 55 54 51 49 48 49 51 54 57 56 53 46 47 48 47 49 50 50 51 46 44 42 45 46 47 49 51 53 53 53 54 57 61 59
49 52 54 55 57 57 56 54 50 50 47 43 43 46 49 50 53 55 56 59 51 50 52 50 47 39 40 42 43 46 46 44 42 41 42 41 42 43 41 42 42 46 49 51 49 47 48 48 47
51 49 47 48 49 56 50 49 53 47 47 46 46 45 47 48 50 49 43 40 42 45 45 45 46 50 44 41 39 36 36 36 38 38 41 42 41 39 38 39 41 44 44 42 42 42 40 41 41
45 42 44 46 46 48 49 52 51 49 50 48 43 37 35 34 36 37 38 41 43 46 47 44 44 38 31 36 38 38 39 36 37 40 40 40 39 40 40 43 45 50 45 39 38 37 36 35 36
41 41 44 47 49 51 49 53 49 46 40 39 37 36 34 32 33 36 35 34 39 42 42 38 36 36 37 36 34 34 35 36 37 40 43 42 42 43 45 47 47 40 35 34 34 34 34 33 31
40 40 41 42 45 47 49 48 43 38 37 36 35 33 31 32 33 34 29 28 33 38 36 37 37 38 36 33 35 36 36 37 38 39 39 41 40 41 43 44 38 33 31 30 31 32 33 33 32
40 37 34 37 38 41 42 40 38 37 37 35 31 30 31 32 31 28 28 30 34 32 31 29 28 29 32 33 34 35 36 37 37 39 41 37 38 40 41 38 33 32 32 31 31 30 29 29 29
34 38 39 38 39 41 41 39 40 39 36 36 33 28 28 29 31 32 32 31 30 29 28 26 27 31 34 35 37 38 38 39 38 40 36 36 38 38 38 36 33 31 30 30 31 30 30 29 28
37 32 32 37 39 42 44 42 41 39 40 39 32 31 30 31 31 30 31 29 31 33 31 29 29 32 34 33 34 36 37 38 39 34 35 34 33 32 31 30 31 31 31 31 29 29 28 28 27
Wind_Direction
263 264 261 258 259 259 258 258 261 264 264 263 263 260 250 247 245 258 268 278 280 278 287 296 280 279 290 272 278 298 303 296 297 298 300 300 301 304 305 307 304 301 299 294 288 285 281 276 276
263 263 263 262 262 261 263 263 262 266 266 265 259 249 245 246 252 260 268 268 272 279 284 287 288 289 271 291 289 295 299 294 294 295 296 297 297 301 303 301 300 297 293 289 287 279 273 274 272
268 266 268 266 266 264 266 266 263 260 263 263 256 244 243 246 258 265 266 267 271 278 278 283 288 288 287 284 285 297 297 294 291 293 294 296 300 303 302 299 296 292 286 283 281 281 277 273 271
270 270 269 266 265 265 261 263 261 258 263 264 255 235 235 240 248 255 261 266 275 282 285 288 295 295 291 291 291 294 294 290 289 293 295 299 302 303 300 295 289 283 281 282 281 279 279 275 275
269 267 270 265 263 258 261 263 265 264 261 266 260 238 238 238 244 253 259 266 270 276 278 285 285 288 286 289 288 291 290 290 295 297 298 299 299 298 296 294 288 278 275 276 277 277 278 278 274
273 274 276 272 273 270 269 267 266 268 267 262 253 250 247 250 253 258 268 276 281 281 278 277 278 279 282 283 288 286 286 290 294 294 294 296 296 294 294 294 284 273 271 272 270 271 271 272 274
267 277 279 281 277 282 273 273 275 271 272 271 264 254 257 261 267 272 277 276 277 279 278 277 277 278 277 279 279 281 284 286 286 287 287 288 290 290 288 291 281 274 272 269 268 267 267 267 267
274 273 277 286 288 284 274 274 285 281 283 280 275 268 264 265 269 272 273 271 273 280 282 280 280 280 282 282 284 284 284 286 287 287 287 285 284 283 282 288 281 276 276 271 267 266 266 267 266
281 284 280 283 280 285 290 282 273 275 276 286 282 281 283 293 278 274 279 284 284 283 282 281 279 279 279 279 279 280 282 283 285 285 285 283 280 277 277 282 279 273 267 269 267 268 266 265 266
288 284 280 279 275 279 279 283 282 275 273 273 274 279 284 288 283 286 280 280 280 280 280 279 278 278 278 277 277 278 279 281 281 282 283 283 281 275 274 276 277 271 267 262 263 265 269 267 265
281 287 288 277 271 267 274 273 273 271 269 267 270 274 275 278 278 277 276 273 273 274 277 280 280 279 278 280 282 281 278 277 277 278 279 281 281 278 276 273 270 266 262 260 261 262 264 267 265
285 288 288 284 277 261 259 257 256 260 264 265 270 273 273 274 274 277 279 276 273 270 269 270 273 276 278 279 277 275 274 275 278 279 280 279 279 278 276 271 268 265 259 258 257 257 257 259 263
280 287 290 286 281 275 268 270 268 272 274 272 270 271 273 271 270 273 279 278 277 276 274 274 275 275 276 276 276 277 277 278 278 278 278 277 275 274 273 270 268 264 262 259 259 261 261 260 258
278 285 289 289 283 279 281 273 279 282 272 273 275 275 274 277 279 279 277 277 277 275 276 277 277 275 274 274 275 276 277 277 277 276 276 276 275 273 272 271 268 266 263 261 262 262 264 265 265
276 280 279 279 281 285 285 279 274 271 274 272 272 273 276 281 283 281 281 281 279 277 275 273 272 271 272 274 274 275 274 275 276 277 276 274 274 272 270 268 266 265 264 263 261 261 260 260 262
278 276 272 273 277 280 283 281 279 278 277 277 276 277 274 277 280 282 279 273 270 271 270 269 270 270 271 272 273 274 276 277 278 278 278 277 277 276 273 270 269 268 265 264 264 263 263 261 259
274 274 275 273 274 275 276 280 278 275 274 276 277 276 276 275 271 272 272 270 269 268 266 267 269 271 272 272 274 276 277 278 279 279 279 280 279 277 277 276 274 272 271 269 267 265 264 262 261
275 278 281 281 276 274 275 277 276 276 276 275 276 279 279 277 273 271 267 267 271 271 271 272 273 274 274 277 280 283 282 281 280 281 282 281 281 281 281 281 279 278 276 273 271 269 267 265 263
279 281 282 280 274 274 271 272 270 272 271 274 276 275 277 277 278 276 276 277 279 281 285 285 285 285 284 285 288 288 287 286 286 284 285 284 283 283 284 284 283 281 281 279 277 275 272 271 266
279 278 275 273 271 269 268 266 265 265 271 272 272 276 276 275 275 277 278 280 281 282 283 282 281 279 282 286 285 285 286 287 287 287 288 291 291 291 292 290 287 285 283 280 278 276 274 273 270
276 273 273 271 267 266 267 269 266 266 266 268 271 271 271 273 274 277 279 281 281 279 278 278 277 283 287 289 287 288 288 291 294 293 295 300 302 303 302 300 299 299 297 291 287 283 277 275 274
277 269 269 269 269 267 266 270 265 264 265 263 264 266 269 271 274 276 277 277 278 273 272 274 284 289 291 289 288 289 293 293 296 302 305 303 300 299 300 300 298 298 296 294 292 289 285 282 281
265 264 264 263 265 266 268 272 268 269 270 270 270 269 270 272 274 277 278 279 273 274 278 285 284 287 289 280 285 288 294 301 300 298 297 295 294 295 294 295 298 295 292 292 293 293 292 287 282
262 267 271 271 271 268 274 277 268 275 280 283 281 282 281 281 278 276 275 277 276 278 278 275 275 279 277 289 294 299 302 300 296 294 295 297 300 301 300 298 297 305 298 293 295 294 295 293 290
273 276 275 272 273 275 275 275 274 278 284 285 284 284 280 272 274 273 269 266 269 272 274 276 278 285 290 301 305 304 301 293 294 296 297 297 299 299 301 301 302 303 297 294 294 296 296 296 294
276 276 275 280 279 277 281 280 281 283 284 282 284 283 280 275 273 276 275 270 267 268 267 272 286 294 297 303 301 297 295 295 297 297 299 301 298 300 302 300 303 302 298 295 294 295 297 298 298
272 274 274 276 277 279 278 278 280 283 282 280 280 280 277 275 274 274 273 257 259 273 283 286 288 291 290 289 285 283 289 292 298 300 298 301 301 300 298 302 304 300 299 295 296 299 300 303 305
279 278 276 277 280 277 280 283 286 285 284 283 285 282 276 274 278 283 287 282 284 290 292 288 285 281 276 277 284 289 292 293 302 304 302 299 300 300 301 302 301 297 296 295 293 294 296 299 304
271 274 276 276 277 279 285 286 287 291 290 287 287 284 280 278 281 288 290 291 294 294 292 287 284 283 283 284 287 291 292 296 298 302 300 300 301 302 302 299 297 297 300 299 296 295 295 293 296
274 273 273 273 277 272 275 293 290 285 281 281 288 284 279 278 283 286 289 286 291 286 285 280 284 286 288 289 288 289 292 294 297 299 301 304 306 305 304 304 301 299 299 299 300 297 297 293 294